Weather History for KLWA - December, 2013

Change the Weather History Date:

Thursday, December 12, 2013

  Actual Average (KBIV) Record (KBIV)
Temperature  
Mean Temperature 17 °F 32 °F  
Max Temperature 27 °F 37 °F 62 °F (1949)
Min Temperature 8 °F 27 °F -2 °F (1958)
Degree Days  
Heating Degree Days 48 33  
Month to date heating degree days 374  
Since 1 July heating degree days 1597  
Cooling Degree Days 0 0  
Month to date cooling degree days 0  
Year to date cooling degree days 693  
Moisture  
Dew Point 11 °F    
Average Humidity 73    
Maximum Humidity 81    
Minimum Humidity 57    
Precipitation  
Precipitation 0.00 in 0.08 in 1.05 in (1967)
Month to date precipitation 1.13  
Year to date precipitation 35.29  
Sea Level Pressure  
Sea Level Pressure 30.32 in    
Wind  
Wind Speed 12 mph (WSW)    
Max Wind Speed 21 mph    
Max Gust Speed 28 mph    
Visibility 8 miles    
Events Snow    
T = Trace of Precipitation, MM = Missing Value Source: NWS Daily Summary

Daily Weather History Graph

Daily Weather History Graph

Search for Another Location

Airport or City:

Trip Planner

Search our weather history database for the weather conditions in past years. The results will help you decide how hot, cold, wet, or windy it might be!

Date:

Astronomy

Dec. 12, 2013 Rise Set
Actual Time 8:05 AM EST 5:12 PM EST
Civil Twilight 7:33 AM EST 5:44 PM EST
Nautical Twilight 6:57 AM EST 6:19 PM EST
Astronomical Twilight 6:23 AM EST 6:54 PM EST
Moon 2:23 PM EST (12/12) 3:23 AM EST (12/12)
Length of Visible Light 10h 11m
Length of Day
9h 07m
Waxing Gibbous, 80% of the Moon is Illuminated
Dec 12
Waxing Gibbous
Dec 17
Full
Dec 25
Last Quarter
Jan 1
New
Jan 7
First Quarter

Hourly Weather History & Observations

Time (EST) Temp. Windchill Dew Point Humidity Pressure Visibility Wind Dir Wind Speed Gust Speed Precip Events Conditions
12:15 AM 14.5 °F 1.9 °F 6.8 °F 71% 30.45 in 7.0 mi WNW 10.4 mph 17.3 mph N/A Snow Light Snow
12:35 AM 14.5 °F 3.6 °F 5.9 °F 69% 30.46 in 10.0 mi WNW 8.1 mph - N/A   Overcast
12:55 AM 14.7 °F 2.1 °F 5.7 °F 68% 30.46 in 10.0 mi West 10.4 mph 16.1 mph N/A   Overcast
1:14 AM 14.9 °F 3.1 °F 7.0 °F 71% 30.45 in 7.0 mi WNW 9.2 mph - N/A Snow Light Snow
1:35 AM 14.9 °F 1.6 °F 6.1 °F 68% 30.45 in 7.0 mi West 11.5 mph 17.3 mph N/A   Overcast
1:55 AM 14.7 °F 0.7 °F 6.8 °F 71% 30.45 in 5.0 mi West 12.7 mph 19.6 mph N/A Snow Light Snow
2:14 AM 14.5 °F 1.1 °F 6.8 °F 71% 30.45 in 7.0 mi West 11.5 mph 16.1 mph N/A Snow Light Snow
2:35 AM 14.5 °F 1.9 °F 6.3 °F 70% 30.44 in 10.0 mi West 10.4 mph 18.4 mph N/A Snow Light Snow
2:55 AM 14.0 °F -0.2 °F 7.2 °F 74% 30.45 in 4.0 mi West 12.7 mph 19.6 mph N/A Snow Light Snow
3:15 AM 13.6 °F 0.7 °F 5.7 °F 71% 30.45 in 5.0 mi West 10.4 mph 18.4 mph N/A Snow Light Snow
3:35 AM 13.6 °F -0.7 °F 6.4 °F 73% 30.45 in 7.0 mi West 12.7 mph 18.4 mph N/A Snow Light Snow
3:55 AM 13.6 °F 0.0 °F 5.9 °F 71% 30.45 in 5.0 mi West 11.5 mph 19.6 mph N/A Snow Light Snow
4:15 AM 13.8 °F -1.1 °F 6.4 °F 72% 30.44 in 10.0 mi West 13.8 mph 20.7 mph N/A Snow Light Snow
4:35 AM 14.5 °F 1.1 °F 6.3 °F 70% 30.43 in 10.0 mi West 11.5 mph - N/A   Overcast
4:55 AM 14.9 °F 0.9 °F 5.7 °F 67% 30.42 in 10.0 mi WSW 12.7 mph - N/A   Overcast
5:15 AM 14.9 °F 1.6 °F 5.7 °F 67% 30.41 in 10.0 mi WSW 11.5 mph 17.3 mph N/A   Mostly Cloudy
5:35 AM 15.4 °F 2.3 °F 6.1 °F 67% 30.40 in 10.0 mi West 11.5 mph 19.6 mph N/A   Mostly Cloudy
5:55 AM 15.4 °F -0.6 °F 5.7 °F 65% 30.40 in 10.0 mi West 17.3 mph - N/A   Mostly Cloudy
6:15 AM 15.6 °F 3.2 °F 6.8 °F 68% 30.40 in 10.0 mi WSW 10.4 mph 19.6 mph N/A   Overcast
6:35 AM 15.6 °F 0.1 °F 6.3 °F 67% 30.39 in 10.0 mi WSW 16.1 mph 20.7 mph N/A   Mostly Cloudy
6:55 AM 15.8 °F 2.1 °F 6.6 °F 67% 30.39 in 10.0 mi WSW 12.7 mph 23.0 mph N/A   Overcast
7:15 AM 16.3 °F 2.1 °F 7.5 °F 68% 30.39 in 10.0 mi WSW 13.8 mph 19.6 mph N/A   Overcast
7:35 AM 16.5 °F 0.8 °F 7.7 °F 68% 30.39 in 10.0 mi West 17.3 mph 24.2 mph N/A   Overcast
7:55 AM 15.8 °F 1.4 °F 7.5 °F 70% 30.38 in 10.0 mi WSW 13.8 mph 23.0 mph N/A   Overcast
8:15 AM 15.8 °F 2.7 °F 8.1 °F 72% 30.37 in 7.0 mi WSW 11.5 mph 20.7 mph N/A   Overcast
8:35 AM 16.3 °F 1.6 °F 8.4 °F 71% 30.36 in 10.0 mi WSW 15.0 mph 21.9 mph N/A   Overcast
8:55 AM 16.0 °F 5.3 °F 8.2 °F 72% 30.36 in 10.0 mi South 8.1 mph 17.3 mph N/A   Overcast
9:15 AM 10.0 °F -3.7 °F 4.1 °F 77% 30.36 in 10.0 mi South 10.4 mph - N/A   Overcast
9:35 AM 8.6 °F -4.7 °F 3.2 °F 79% 30.35 in 10.0 mi South 9.2 mph - N/A   Overcast
9:55 AM 8.2 °F -6.0 °F 3.6 °F 81% 30.36 in 10.0 mi SSW 10.4 mph - N/A   Overcast
10:15 AM 8.6 °F -5.5 °F 3.9 °F 81% 30.36 in 7.0 mi SSW 10.4 mph 17.3 mph N/A Snow Light Snow
10:34 AM 9.0 °F -5.1 °F 3.7 °F 79% 30.35 in 3.0 mi SSW 10.4 mph 17.3 mph N/A Snow Light Snow
10:55 AM 9.3 °F -6.1 °F -0.0 °F 66% 30.33 in 10.0 mi SSW 12.7 mph 20.7 mph N/A   Overcast
11:15 AM 9.5 °F -5.9 °F -2.7 °F 58% 30.33 in 10.0 mi SSW 12.7 mph 18.4 mph N/A   Mostly Cloudy
11:35 AM 9.5 °F -6.6 °F -2.7 °F 58% 30.32 in 10.0 mi SSW 13.8 mph 17.3 mph N/A   Overcast
11:55 AM 10.2 °F -3.5 °F -2.2 °F 57% 30.32 in 10.0 mi SSW 10.4 mph 16.1 mph N/A   Overcast
12:15 PM 11.8 °F -3.0 °F 1.6 °F 63% 30.30 in 10.0 mi SSW 12.7 mph 18.4 mph N/A   Overcast
12:35 PM 14.4 °F -3.0 °F 6.6 °F 71% 30.29 in 10.0 mi WSW 19.6 mph 25.3 mph N/A   Overcast
12:55 PM 19.9 °F 3.9 °F 11.7 °F 70% 30.28 in 5.0 mi WSW 20.7 mph 27.6 mph N/A Snow Light Snow
1:15 PM 20.1 °F 5.9 °F 11.7 °F 70% 30.27 in 5.0 mi WSW 16.1 mph 26.5 mph N/A Snow Light Snow
1:35 PM 20.1 °F 5.4 °F 12.6 °F 73% 30.27 in 4.0 mi WSW 17.3 mph 26.5 mph N/A Snow Light Snow
1:55 PM 20.3 °F 5.7 °F 13.3 °F 74% 30.26 in 3.0 mi West 17.3 mph 26.5 mph N/A Snow Light Snow
2:15 PM 20.1 °F 5.0 °F 14.0 °F 77% 30.26 in 1.8 mi WSW 18.4 mph 27.6 mph N/A Snow Light Snow
2:35 PM 20.1 °F 5.0 °F 13.8 °F 77% 30.25 in 3.0 mi WSW 18.4 mph 25.3 mph N/A Snow Light Snow
2:55 PM 20.5 °F 7.4 °F 14.4 °F 77% 30.25 in 3.0 mi West 13.8 mph 20.7 mph N/A Snow Light Snow
3:15 PM 20.8 °F 7.9 °F 14.9 °F 78% 30.24 in 2.0 mi WSW 13.8 mph 23.0 mph N/A Snow Light Snow
3:55 PM 21.6 °F 8.8 °F 16.3 °F 80% 30.24 in 3.0 mi WSW 13.8 mph 23.0 mph N/A Snow Light Snow
4:15 PM 21.7 °F 9.0 °F 15.8 °F 78% 30.24 in 5.0 mi West 13.8 mph 20.7 mph N/A   Haze
4:35 PM 22.1 °F 8.0 °F 16.3 °F 79% 30.24 in 7.0 mi WSW 17.3 mph 21.9 mph N/A   Overcast
4:55 PM 22.5 °F 9.4 °F 16.5 °F 78% 30.24 in 10.0 mi West 15.0 mph 23.0 mph N/A   Overcast
5:15 PM 22.8 °F 10.4 °F 16.7 °F 77% 30.24 in 10.0 mi West 13.8 mph 19.6 mph N/A   Overcast
5:35 PM 23.4 °F 11.6 °F 17.2 °F 77% 30.23 in 10.0 mi West 12.7 mph 18.4 mph N/A   Overcast
5:55 PM 23.9 °F 10.8 °F 18.0 °F 78% 30.22 in 10.0 mi WSW 16.1 mph 20.7 mph N/A   Overcast
6:15 PM 24.3 °F 12.7 °F 18.0 °F 77% 30.22 in 10.0 mi WSW 12.7 mph 18.4 mph N/A   Overcast
6:35 PM 24.6 °F 12.7 °F 18.5 °F 78% 30.22 in 10.0 mi West 13.8 mph 18.4 mph N/A   Overcast
6:55 PM 24.8 °F 12.9 °F 18.5 °F 77% 30.21 in 10.0 mi WSW 13.8 mph 21.9 mph N/A   Overcast
7:15 PM 25.3 °F 13.6 °F 18.7 °F 76% 30.21 in 10.0 mi West 13.8 mph 18.4 mph N/A   Overcast
7:34 PM 25.5 °F 14.3 °F 19.0 °F 76% 30.21 in 10.0 mi West 12.7 mph 21.9 mph N/A   Overcast
7:55 PM 25.7 °F 14.6 °F 19.4 °F 77% 30.21 in 10.0 mi West 12.7 mph 18.4 mph N/A   Overcast
8:15 PM 25.5 °F 13.8 °F 19.0 °F 76% 30.21 in 10.0 mi West 13.8 mph 18.4 mph N/A   Overcast
8:35 PM 25.7 °F 15.1 °F 19.4 °F 77% 30.21 in 10.0 mi West 11.5 mph 19.6 mph N/A   Overcast
8:55 PM 25.7 °F 14.6 °F 19.4 °F 77% 30.21 in 10.0 mi West 12.7 mph 20.7 mph N/A   Overcast
9:15 PM 25.9 °F 14.3 °F 19.9 °F 78% 30.21 in 10.0 mi WSW 13.8 mph 21.9 mph N/A   Overcast
9:35 PM 26.1 °F 13.6 °F 19.9 °F 78% 30.21 in 10.0 mi West 16.1 mph 19.6 mph N/A   Overcast
9:55 PM 26.2 °F 14.7 °F 20.1 °F 78% 30.20 in 10.0 mi West 13.8 mph 18.4 mph N/A   Overcast
10:14 PM 26.4 °F 16.0 °F 20.1 °F 77% 30.20 in 10.0 mi West 11.5 mph 18.4 mph N/A   Overcast
10:35 PM 26.1 °F 14.5 °F 19.9 °F 78% 30.19 in 10.0 mi West 13.8 mph 17.3 mph N/A   Overcast
10:55 PM 26.4 °F 16.0 °F 20.3 °F 78% 30.19 in 10.0 mi West 11.5 mph 18.4 mph N/A   Overcast
11:15 PM 26.6 °F 15.2 °F 20.7 °F 78% 30.19 in 10.0 mi WSW 13.8 mph 19.6 mph N/A   Overcast
11:35 PM 26.8 °F 14.9 °F 20.8 °F 78% 30.18 in 10.0 mi WSW 15.0 mph 19.6 mph N/A   Overcast
11:54 PM 27.0 °F 15.2 °F 21.0 °F 78% 30.17 in 10.0 mi WSW 15.0 mph 18.4 mph N/A   Overcast